Flag for Germany Past Weather in Landau in der Pfalz, Rhineland-Palatinate, Germany — Yesterday and Last 2 Weeks

Now
79 °F

Passing clouds.


Feels Like: 81 °F
Forecast: 64 / 78 °F
Wind: 6 mph from South

Location: Mannheim City

Current Time: Aug 28, 2016 at 9:16:24 AM

Latest Report: Aug 28, 2016 at 8:50 AM


Visibility: N/A

Pressure: 29.98 "Hg

Humidity: 61%

Dew Point: 64 °F

Location of Landau in der PfalzLocation

Past Weather in Landau in der Pfalz — Graph

°F

Landau in der Pfalz Temperature Yesterday

Maximum temperature yesterday: 95 °F (at 5:20 PM)
Minimum temperature yesterday: 64 °F (at 6:50 AM)
Average temperature yesterday: 85 °F

High & Low Weather Summary for the Past Weeks

 TemperatureHumidityPressure
High95 °F (Aug 26, 5:20 PM)100% (Aug 19, 5:20 AM)30.39 "Hg (Aug 19, 5:20 AM)
Low54 °F (Aug 18, 6:20 AM)23% (Aug 25, 4:50 PM)29.80 "Hg (Aug 18, 4:20 PM)
Average74 °F60%30.07 "Hg
* Reported Aug 13 7:50 AM — Aug 28 7:50 AM, Landau in der Pfalz, Weather by CustomWeather, © 2016

Note: Actual official high and low records may vary slightly from our data, if they occured in-between our weather recording intervals... More about our weather records

Advertising

Landau in der Pfalz Weather History for the Previous 24 Hours

Scroll right to see more
 ConditionsComfort  
Time TempWeatherWind HumidityBarometerVisibility
7:50 AM
Sun, Aug 28
73 °FSunny.2 mph74%29.98 "Hg10 mi
8:50 PM
Sat, Aug 27
79 °FSunny.1 mph58%29.98 "Hg10 mi
8:20 PM82 °FSunny.No wind51%29.98 "Hg10 mi
7:50 PM88 °FSunny.2 mph46%29.95 "Hg10 mi
7:20 PM91 °FSunny.3 mph34%29.98 "Hg10 mi
6:50 PM93 °FSunny.3 mph32%29.98 "Hg10 mi
6:20 PM93 °FPassing clouds.5 mph32%29.98 "HgN/A
5:50 PM95 °FSunny.5 mph30%29.98 "Hg10 mi
5:20 PM95 °FSunny.3 mph30%29.98 "Hg10 mi
4:50 PM93 °FPassing clouds.5 mph32%30.01 "HgN/A
4:20 PM93 °FSunny.5 mph32%30.01 "Hg10 mi
3:50 PM93 °FPassing clouds.5 mph32%30.01 "HgN/A
3:20 PM93 °FSunny.3 mph34%30.01 "Hg10 mi
2:50 PM91 °FSunny.5 mph36%30.04 "Hg10 mi
2:20 PM91 °FSunny.3 mph36%30.04 "Hg10 mi
1:50 PM91 °FSunny.3 mph38%30.04 "Hg10 mi
1:20 PM90 °FSunny.3 mph38%30.04 "Hg10 mi
12:50 PM90 °FSunny.2 mph43%30.07 "Hg10 mi
12:20 PM90 °FSunny.1 mph43%30.07 "Hg10 mi
11:50 AM86 °FSunny.2 mph49%30.07 "Hg10 mi
11:20 AM82 °FSunny.2 mph55%30.07 "Hg10 mi
10:50 AM82 °FSunny.2 mph58%30.07 "Hg10 mi
10:20 AM79 °FSunny.2 mph61%30.07 "Hg10 mi
9:50 AM77 °FSunny.2 mph65%30.07 "Hg10 mi
9:20 AM75 °FSunny.1 mph69%30.07 "Hg10 mi
Weather by CustomWeather, © 2016

See weather overviewHow to use our weather pages